Retour au catalogue

ONEWEB-0347

ActifCommunicationsPO
NORAD 49280·PAYLOAD·🇬🇧 United Kingdom

Lancé Oct 14, 2021 depuis Vostochny Cosmodrome

Loading…

Prochains Passages (prochaines 24 heures)

TLE

FraisSource: CelesTrak SupGP

Époque: Sep 14, 2026, 16:31 UTC

1 49280C 21090B   26257.68833750 -.00002024  00000+0 -49830-2 0  2579
2 49280  87.9144 256.5869 0002181  84.5155  27.7422 13.20773561    19

Suivez ONEWEB-0347 en temps réel avec AllMySat

Download on the App Store